GW0795 Weather Reports


Display with metric or nautical units.
time (UTC)temp
F
wind
direction
speed
MPH
gust
MPH
rain 1hr
in
rain 24hr
in
rain mn
in
humidity
%
barometer
mb
20260509031547 56 246 0.0 0.0 0.00 0.00 0.00 71 1021.8
20260509031012 56 246 0.0 0.0 0.00 0.00 0.00 70 1021.8
20260509030506 56 265 0.0 0.0 0.00 0.00 0.00 69 1021.8
20260509030012 56 188 0.0 1.0 0.00 0.00 0.00 69 1021.8
20260509025503 57 188 0.0 3.0 0.00 0.00 0.00 68 1021.7
20260509025007 57 208 0.0 3.0 0.00 0.00 0.00 67 1021.7
20260509024514 57 218 0.0 2.0 0.00 0.00 0.00 66 1021.7
20260509024008 58 208 0.0 2.0 0.00 0.00 0.00 66 1021.7
20260509023509 58 175 0.0 2.0 0.00 0.00 0.00 66 1021.8
20260509023024 58 175 0.0 4.0 0.00 0.00 0.00 66 1021.7
20260509022507 58 189 1.0 4.0 0.00 0.00 0.00 66 1021.7
20260509022006 58 204 1.0 3.0 0.00 0.00 0.00 65 1021.7
20260509021534 58 195 1.0 7.0 0.00 0.00 0.00 65 1021.7
20260509021010 58 218 1.0 7.0 0.00 0.00 0.00 65 1021.7
20260509020508 58 219 2.0 7.0 0.00 0.00 0.00 64 1021.7
20260509020024 58 213 1.0 7.0 0.00 0.00 0.00 63 1021.7
20260509015509 58 229 2.0 7.0 0.00 0.00 0.00 63 1021.8
20260509015010 59 205 2.0 6.0 0.00 0.00 0.00 62 1021.8
20260509014511 59 206 1.0 2.0 0.00 0.00 0.00 62 1021.8
20260509014010 59 235 1.0 2.0 0.00 0.00 0.00 61 1021.6
20260509013507 59 227 0.0 2.0 0.00 0.00 0.00 62 1021.5
20260509013016 59 216 0.0 4.0 0.00 0.00 0.00 61 1021.5
20260509012510 59 216 1.0 6.0 0.00 0.00 0.00 61 1021.7
20260509012010 59 225 0.0 6.0 0.00 0.00 0.00 61 1021.6
20260509011523 59 156 0.0 6.0 0.00 0.00 0.00 61 1021.6
20260509011006 59 234 1.0 5.0 0.00 0.00 0.00 60 1021.6
20260509010509 60 142 0.0 2.0 0.00 0.00 0.00 61 1021.7
20260509010022 60 310 0.0 2.0 0.00 0.00 0.00 59 1021.7
20260509005511 59 223 1.0 4.0 0.00 0.00 0.00 60 1021.7
20260509005011 60 212 1.0 4.0 0.00 0.00 0.00 59 1021.8
20260509004536 59 213 1.0 4.0 0.00 0.00 0.00 60 1021.7
20260509004016 59 211 0.0 4.0 0.00 0.00 0.00 59 1021.7
20260509003506 60 209 1.0 7.0 0.00 0.00 0.00 59 1021.7
20260509003014 60 205 2.0 7.0 0.00 0.00 0.00 58 1021.8
20260509002507 60 203 1.0 4.0 0.00 0.00 0.00 58 1021.8
20260509002010 60 209 1.0 4.0 0.00 0.00 0.00 59 1021.8
20260509001505 59 208 1.0 8.0 0.00 0.00 0.00 59 1021.8
20260509001004 59 227 3.0 8.0 0.00 0.00 0.00 59 1021.8
20260509000503 59 192 2.0 6.0 0.00 0.00 0.00 58 1021.8
20260509000004 60 213 1.0 5.0 0.00 0.00 0.00 59 1021.7
20260508235505 60 254 1.0 2.0 0.00 0.00 0.00 58 1021.7
20260508235006 60 238 1.0 3.0 0.00 0.00 0.00 57 1021.7
20260508234512 60 281 0.0 7.0 0.00 0.00 0.00 58 1021.7
20260508234003 61 205 1.0 7.0 0.00 0.00 0.00 54 1021.7
20260508233508 62 261 2.0 7.0 0.00 0.00 0.00 55 1021.6
20260508233012 62 294 1.0 6.0 0.00 0.00 0.00 55 1021.7
20260508232505 61 242 2.0 6.0 0.00 0.00 0.00 54 1021.6
20260508232009 62 227 1.0 4.0 0.00 0.00 0.00 54 1021.6
20260508231515 62 298 2.0 8.0 0.00 0.00 0.00 54 1021.7
20260508231008 61 161 1.0 8.0 0.00 0.00 0.00 55 1021.7
20260508230508 61 140 2.0 7.0 0.00 0.00 0.00 56 1021.8
20260508230004 61 207 2.0 8.0 0.00 0.00 0.00 53 1021.8
20260508225504 61 196 2.0 8.0 0.00 0.00 0.00 54 1021.7
20260508225004 62 153 1.0 9.0 0.00 0.00 0.00 54 1021.7
20260508224508 61 173 4.0 9.0 0.00 0.00 0.00 53 1021.7
20260508224003 62 213 1.0 7.0 0.00 0.00 0.00 53 1021.8
20260508223503 62 248 1.0 7.0 0.00 0.00 0.00 54 1021.9
20260508223018 61 287 0.0 9.0 0.00 0.00 0.00 54 1021.9
20260508222503 61 147 2.0 10.0 0.00 0.00 0.00 53 1021.8
20260508222012 61 267 4.0 10.0 0.00 0.00 0.00 53 1021.8
20260508221516 61 205 3.0 14.0 0.00 0.00 0.00 56 1021.8
20260508221008 61 205 6.0 13.0 0.00 0.00 0.00 55 1021.8
20260508220507 61 232 1.0 4.0 0.00 0.00 0.00 54 1021.8
20260508220019 61 196 2.0 7.0 0.00 0.00 0.00 56 1021.8
20260508215516 61 226 2.0 7.0 0.00 0.00 0.00 54 1021.8
20260508215009 61 153 3.0 9.0 0.00 0.00 0.00 54 1021.9
20260508214506 61 239 2.0 9.0 0.00 0.00 0.00 53 1021.8
20260508214003 62 240 2.0 9.0 0.00 0.00 0.00 53 1021.8
20260508213504 62 201 1.0 10.0 0.00 0.00 0.00 53 1021.9
20260508213018 61 9 2.0 10.0 0.00 0.00 0.00 56 1021.9
20260508212502 60 219 3.0 9.0 0.00 0.00 0.00 57 1021.8
20260508212007 61 175 2.0 9.0 0.00 0.00 0.00 54 1021.9
20260508211513 60 225 2.0 9.0 0.00 0.00 0.00 58 1021.9
20260508211008 60 191 4.0 8.0 0.00 0.00 0.00 56 1021.9
20260508210507 60 239 3.0 10.0 0.00 0.00 0.00 58 1021.9
20260508210027 60 200 2.0 10.0 0.00 0.00 0.00 60 1021.8
20260508205512 60 200 1.0 7.0 0.00 0.00 0.00 57 1021.8
20260508205009 61 228 3.0 10.0 0.00 0.00 0.00 57 1021.7
20260508204528 60 183 2.0 11.0 0.00 0.00 0.00 59 1021.6
20260508204010 59 167 3.0 11.0 0.00 0.00 0.00 60 1021.6
20260508203503 59 172 2.0 10.0 0.00 0.00 0.00 57 1021.6
20260508203008 58 350 1.0 10.0 0.00 0.00 0.00 58 1021.6
20260508202504 59 172 4.0 10.0 0.00 0.00 0.00 60 1021.5
20260508202003 59 192 2.0 10.0 0.00 0.00 0.00 59 1021.5
20260508201514 57 221 1.0 10.0 0.00 0.00 0.00 62 1021.5
20260508201006 57 198 2.0 12.0 0.00 0.00 0.00 62 1021.6
20260508200504 56 229 3.0 12.0 0.00 0.00 0.00 61 1021.6
20260508200023 56 187 3.0 12.0 0.00 0.00 0.00 61 1021.5
20260508195511 56 207 4.0 8.0 0.00 0.00 0.00 60 1021.5
20260508195008 57 225 1.0 4.0 0.00 0.00 0.00 60 1021.5
20260508194525 57 277 1.0 4.0 0.00 0.00 0.00 60 1021.4
20260508194008 57 255 2.0 5.0 0.00 0.00 0.00 61 1021.5
20260508193508 57 181 1.0 8.0 0.00 0.00 0.00 62 1021.6
20260508193025 56 202 3.0 13.0 0.00 0.00 0.00 62 1021.5
20260508192511 56 241 2.0 13.0 0.00 0.00 0.00 64 1021.4
20260508192006 56 211 4.0 11.0 0.00 0.00 0.00 62 1021.3
20260508191509 58 304 2.0 9.0 0.00 0.00 0.00 62 1021.4
20260508191003 56 202 1.0 4.0 0.00 0.00 0.00 65 1021.5
20260508190504 56 237 2.0 11.0 0.00 0.00 0.00 65 1021.4
20260508190018 54 238 2.0 11.0 0.00 0.00 0.00 68 1021.5
20260508185506 54 169 4.0 10.0 0.00 0.00 0.00 68 1021.5
20260508185007 54 190 3.0 9.0 0.00 0.00 0.00 67 1021.5
20260508184522 54 213 2.0 7.0 0.00 0.00 0.00 66 1021.5
20260508184006 54 246 2.0 7.0 0.00 0.00 0.00 66 1021.5
20260508183512 54 245 2.0 5.0 0.00 0.00 0.00 67 1021.5
20260508183030 54 222 1.0 6.0 0.00 0.00 0.00 69 1021.5
20260508182509 54 141 1.0 6.0 0.00 0.00 0.00 69 1021.4
20260508182008 54 229 1.0 6.0 0.00 0.00 0.00 68 1021.3
20260508181525 54 201 1.0 6.0 0.00 0.00 0.00 68 1021.2
20260508181013 55 247 1.0 6.0 0.00 0.00 0.00 68 1021.0
20260508180509 54 236 1.0 11.0 0.00 0.00 0.00 69 1020.9
20260508180019 54 303 3.0 11.0 0.00 0.00 0.00 68 1020.8
20260508175507 54 227 2.0 9.0 0.00 0.00 0.00 70 1020.8
20260508175006 54 155 3.0 11.0 0.00 0.00 0.00 69 1020.8
20260508174518 54 185 3.0 11.0 0.00 0.00 0.00 70 1020.9
20260508174009 53 219 2.0 10.0 0.00 0.00 0.00 70 1020.8
20260508173508 53 206 3.0 9.0 0.00 0.00 0.00 71 1020.8
20260508173021 53 224 3.0 9.0 0.00 0.00 0.00 72 1020.6
20260508172514 52 256 4.0 8.0 0.00 0.00 0.00 73 1020.5
20260508172012 53 213 1.0 8.0 0.00 0.00 0.00 73 1020.4
20260508171529 53 231 2.0 6.0 0.00 0.00 0.00 72 1020.3
20260508171013 53 234 0.0 6.0 0.00 0.00 0.00 73 1020.3
20260508170508 52 188 1.0 7.0 0.00 0.00 0.00 74 1020.1
20260508170028 52 215 2.0 7.0 0.00 0.00 0.00 73 1020.2
20260508165509 52 217 1.0 4.0 0.00 0.00 0.00 77 1020.2
20260508165008 52 180 0.0 2.0 0.00 0.00 0.00 76 1020.1
20260508164516 51 205 0.0 5.0 0.00 0.00 0.00 75 1020.2
20260508164011 51 244 1.0 5.0 0.00 0.00 0.00 74 1020.1
20260508163506 51 179 1.0 5.0 0.00 0.00 0.00 74 1020.1
20260508163029 52 161 2.0 5.0 0.00 0.00 0.00 73 1020.1
20260508162508 52 266 1.0 5.0 0.00 0.00 0.00 74 1020.1
20260508162009 52 189 0.0 4.0 0.00 0.00 0.00 74 1020.0
20260508161524 52 195 1.0 4.0 0.00 0.00 0.00 74 1019.9
20260508161009 52 266 1.0 4.0 0.00 0.00 0.00 75 1019.9
20260508160508 52 223 1.0 5.0 0.00 0.00 0.00 74 1019.9
20260508160026 52 197 2.0 5.0 0.00 0.00 0.00 75 1019.9
20260508155516 52 215 2.0 5.0 0.00 0.00 0.00 73 1019.9
20260508155008 51 231 2.0 6.0 0.00 0.00 0.00 74 1019.9
20260508154528 51 237 2.0 6.0 0.00 0.00 0.00 74 1019.9
20260508154013 52 210 3.0 7.0 0.00 0.00 0.00 75 1019.9
20260508153513 51 185 3.0 7.0 0.00 0.00 0.00 75 1019.8
20260508153018 51 159 2.0 8.0 0.00 0.00 0.00 76 1019.9
20260508152508 51 213 3.0 8.0 0.00 0.00 0.00 76 1020.0
20260508152011 52 212 3.0 6.0 0.00 0.00 0.00 74 1020.1
20260508151504 52 208 1.0 5.0 0.00 0.00 0.00 76 1020.1
20260508151004 52 198 2.0 10.0 0.00 0.00 0.00 77 1020.1
20260508150501 51 222 3.0 10.0 0.00 0.00 0.00 76 1020.0
20260508150018 51 225 3.0 7.0 0.00 0.00 0.00 78 1020.0
20260508145506 51 209 2.0 7.0 0.00 0.00 0.00 78 1019.8
20260508145007 50 182 3.0 8.0 0.00 0.00 0.00 80 1019.8
20260508144510 50 190 2.0 8.0 0.00 0.00 0.00 80 1019.7
20260508144006 50 225 2.0 5.0 0.00 0.00 0.00 81 1019.6
20260508143509 49 134 1.0 5.0 0.00 0.00 0.00 82 1019.5
20260508143017 49 217 1.0 8.0 0.00 0.00 0.00 82 1019.5
20260508142507 49 210 1.0 8.0 0.00 0.00 0.00 82 1019.4
20260508142007 49 220 2.0 6.0 0.00 0.00 0.00 82 1019.3
20260508141523 49 200 3.0 6.0 0.00 0.00 0.00 83 1019.2
20260508141009 49 221 1.0 6.0 0.00 0.00 0.00 84 1019.1
20260508140511 48 198 2.0 7.0 0.00 0.00 0.00 84 1019.1
20260508140005 48 194 2.0 7.0 0.00 0.00 0.00 84 1018.9
20260508135503 49 235 2.0 7.0 0.00 0.00 0.00 84 1018.8
20260508135001 49 227 3.0 7.0 0.00 0.00 0.00 84 1018.7
20260508134510 49 224 2.0 7.0 0.00 0.00 0.00 84 1018.8
20260508134008 49 213 3.0 6.0 0.00 0.00 0.00 84 1018.6
20260508133510 49 205 1.0 5.0 0.00 0.00 0.00 84 1018.6
20260508133016 49 186 1.0 6.0 0.00 0.00 0.00 84 1018.4
20260508132506 49 217 2.0 6.0 0.00 0.00 0.00 84 1018.4
20260508132010 49 223 1.0 7.0 0.00 0.00 0.00 84 1018.2
20260508131519 49 172 3.0 11.0 0.00 0.00 0.00 84 1018.2
20260508131012 49 209 3.0 11.0 0.00 0.00 0.00 84 1018.2
20260508130508 49 188 2.0 6.0 0.00 0.00 0.00 85 1018.2
20260508130021 49 223 1.0 4.0 0.00 0.00 0.00 85 1018.2
20260508125509 49 207 2.0 5.0 0.00 0.00 0.00 85 1017.9
20260508125008 49 215 1.0 5.0 0.00 0.00 0.00 84 1017.8
20260508124522 49 199 2.0 7.0 0.00 0.00 0.00 84 1017.8
20260508124006 49 228 2.0 7.0 0.00 0.00 0.00 84 1017.8
20260508123505 49 211 1.0 5.0 0.00 0.00 0.00 84 1017.8
20260508123014 49 217 1.0 5.0 0.00 0.00 0.00 85 1017.8
20260508122505 49 215 1.0 4.0 0.00 0.00 0.00 85 1017.7
20260508122007 49 210 0.0 0.0 0.00 0.00 0.00 85 1017.6
20260508121518 49 210 0.0 2.0 0.00 0.00 0.00 85 1017.7
20260508121009 49 217 0.0 2.0 0.00 0.00 0.00 85 1017.4
20260508120507 49 123 0.0 0.0 0.00 0.00 0.00 85 1017.5
20260508120023 49 217 0.0 4.0 0.00 0.00 0.00 85 1017.5
20260508115510 49 217 0.0 4.0 0.00 0.00 0.00 85 1017.4
20260508115008 49 175 0.0 2.0 0.00 0.00 0.00 85 1017.5
20260508114524 49 208 1.0 5.0 0.00 0.00 0.00 85 1017.4
20260508114009 49 200 1.0 5.0 0.00 0.00 0.00 86 1017.4
20260508113510 49 217 2.0 4.0 0.00 0.00 0.00 86 1017.4
20260508113023 49 215 2.0 4.0 0.00 0.00 0.00 86 1017.3
20260508112505 49 190 0.0 0.0 0.00 0.00 0.00 86 1017.3
20260508112005 49 190 0.0 3.0 0.00 0.00 0.00 86 1017.1
20260508111514 49 190 0.0 4.0 0.00 0.00 0.00 86 1017.2
20260508111006 49 189 1.0 4.0 0.00 0.00 0.00 86 1017.2
20260508110507 49 191 0.0 3.0 0.00 0.00 0.00 86 1017.2
20260508110021 49 219 0.0 3.0 0.00 0.00 0.00 87 1017.1
20260508105508 49 216 0.0 2.0 0.00 0.00 0.00 86 1017.0
20260508105010 49 215 0.0 2.0 0.00 0.00 0.00 86 1017.0
20260508104523 49 352 0.0 4.0 0.00 0.00 0.00 86 1016.9
20260508104009 49 234 1.0 4.0 0.00 0.00 0.00 87 1016.9
20260508103509 49 120 0.0 1.0 0.00 0.00 0.00 87 1016.9
20260508103024 49 120 0.0 2.0 0.00 0.00 0.00 87 1016.9
20260508102512 49 163 0.0 2.0 0.00 0.00 0.00 87 1016.9
20260508102013 49 200 0.0 2.0 0.00 0.00 0.00 88 1016.9
20260508101526 49 189 0.0 2.0 0.00 0.00 0.00 88 1016.9
20260508101004 49 204 0.0 2.0 0.00 0.00 0.00 88 1016.8
20260508100504 49 204 0.0 2.0 0.00 0.00 0.00 89 1016.8
20260508100024 49 204 0.0 2.0 0.00 0.00 0.00 89 1016.8
20260508095504 49 204 0.0 2.0 0.00 0.00 0.00 89 1016.8
20260508095009 49 204 0.0 2.0 0.00 0.00 0.00 90 1016.8
20260508094520 48 296 0.0 2.0 0.00 0.00 0.00 89 1016.8
20260508094014 49 296 0.0 0.0 0.00 0.00 0.00 89 1016.8
20260508093509 49 296 0.0 0.0 0.00 0.00 0.00 88 1016.8
20260508093032 49 296 0.0 0.0 0.00 0.00 0.00 87 1016.7
20260508092509 49 296 0.0 0.0 0.00 0.00 0.00 87 1016.8
20260508092011 49 296 0.0 0.0 0.00 0.00 0.00 88 1016.8
20260508091530 49 296 0.0 0.0 0.00 0.00 0.00 88 1016.8
20260508091007 49 296 0.0 0.0 0.00 0.00 0.00 87 1016.9
20260508090508 49 296 0.0 0.0 0.00 0.00 0.00 88 1016.8
20260508090034 49 296 0.0 0.0 0.00 0.00 0.00 88 1016.9
20260508085504 49 296 0.0 0.0 0.00 0.00 0.00 88 1016.8
20260508085005 49 296 0.0 0.0 0.00 0.00 0.00 87 1016.8
20260508084520 49 296 0.0 0.0 0.00 0.00 0.00 87 1016.7
20260508084007 49 296 0.0 0.0 0.00 0.00 0.00 87 1016.7
20260508083503 49 296 0.0 0.0 0.00 0.00 0.00 86 1016.7
20260508083005 49 296 0.0 0.0 0.00 0.00 0.00 86 1016.7
20260508082502 49 296 0.0 0.0 0.00 0.00 0.00 85 1016.7
20260508082001 49 296 0.0 0.0 0.00 0.00 0.00 85 1016.7
20260508081505 49 296 0.0 0.0 0.00 0.00 0.00 85 1016.5
20260508081006 49 296 0.0 0.0 0.00 0.00 0.00 85 1016.6
20260508080504 50 296 0.0 0.0 0.00 0.00 0.00 85 1016.6
20260508080028 50 296 0.0 0.0 0.00 0.00 0.00 84 1016.6
20260508075503 50 296 0.0 0.0 0.00 0.00 0.00 84 1016.6
20260508075000 50 296 0.0 0.0 0.00 0.00 0.00 84 1016.6
20260508074501 50 296 0.0 0.0 0.00 0.00 0.00 84 1016.6
20260508074001 50 296 0.0 0.0 0.00 0.00 0.00 84 1016.6
20260508073500 50 296 0.0 0.0 0.00 0.00 0.00 84 1016.7
20260508073003 50 296 0.0 0.0 0.00 0.00 0.00 83 1016.7
20260508072501 50 296 0.0 0.0 0.00 0.00 0.00 83 1016.7
20260508072002 50 296 0.0 0.0 0.00 0.00 0.00 83 1016.8
20260508071508 50 296 0.0 0.0 0.00 0.00 0.00 83 1016.8
20260508071005 51 296 0.0 0.0 0.00 0.00 0.00 83 1016.8
20260508070508 51 296 0.0 0.0 0.00 0.00 0.00 82 1016.8
20260508070019 51 296 0.0 0.0 0.00 0.00 0.00 82 1016.8
20260508065503 51 296 0.0 0.0 0.00 0.00 0.00 83 1016.8
20260508065004 50 296 0.0 0.0 0.00 0.00 0.00 82 1016.8
20260508064534 51 296 0.0 0.0 0.00 0.00 0.00 81 1016.8
20260508064005 51 296 0.0 0.0 0.00 0.00 0.00 81 1016.8
20260508063501 51 296 0.0 0.0 0.00 0.00 0.00 81 1016.7
20260508063004 51 296 0.0 0.0 0.00 0.00 0.00 80 1016.7
20260508062502 51 296 0.0 0.0 0.00 0.00 0.00 80 1016.7
20260508062001 51 296 0.0 0.0 0.00 0.00 0.00 80 1016.7
20260508061505 51 296 0.0 0.0 0.00 0.00 0.00 80 1016.7
20260508061001 51 296 0.0 0.0 0.00 0.00 0.00 80 1016.7
20260508060500 51 296 0.0 0.0 0.00 0.00 0.00 79 1016.7
20260508060007 52 296 0.0 0.0 0.00 0.00 0.00 79 1016.8
20260508055504 52 296 0.0 0.0 0.00 0.00 0.00 79 1016.8
20260508055004 52 296 0.0 0.0 0.00 0.00 0.00 79 1016.8
20260508054516 52 296 0.0 0.0 0.00 0.00 0.00 78 1016.9
20260508054005 53 296 0.0 2.0 0.00 0.00 0.00 77 1016.8
20260508053504 53 296 0.0 2.0 0.00 0.00 0.00 77 1016.8
20260508053016 53 296 0.0 2.0 0.00 0.00 0.00 77 1016.8
20260508052510 53 296 0.0 0.0 0.00 0.00 0.00 76 1016.8
20260508052008 53 296 0.0 0.0 0.00 0.00 0.00 76 1016.8
20260508051504 53 296 0.0 0.0 0.00 0.00 0.00 76 1016.8
20260508051006 53 296 0.0 0.0 0.00 0.00 0.00 76 1016.9
20260508050500 53 296 0.0 0.0 0.00 0.00 0.00 76 1016.8
20260508050009 54 296 0.0 0.0 0.00 0.00 0.00 76 1016.7
20260508045504 54 296 0.0 0.0 0.00 0.00 0.00 76 1016.8
20260508045005 54 296 0.0 0.0 0.00 0.00 0.00 75 1016.8
20260508044509 54 296 0.0 0.0 0.00 0.00 0.00 75 1016.9
20260508044004 54 296 0.0 0.0 0.00 0.00 0.00 75 1016.9
20260508043504 55 296 0.0 0.0 0.00 0.00 0.00 74 1016.9
20260508043016 55 296 0.0 0.0 0.00 0.00 0.00 74 1016.9
20260508042506 55 296 0.0 0.0 0.00 0.00 0.00 74 1017.0
20260508042004 55 296 0.0 0.0 0.00 0.00 0.00 73 1017.0
20260508041519 55 296 0.0 0.0 0.00 0.00 0.00 73 1016.9
20260508041006 55 296 0.0 0.0 0.00 0.00 0.00 73 1017.0
20260508040509 56 296 0.0 0.0 0.00 0.00 0.00 73 1017.1
20260508040014 56 296 0.0 0.0 0.00 0.00 0.00 72 1017.0
20260508035501 56 296 0.0 0.0 0.00 0.00 0.00 72 1017.0
20260508035006 56 296 0.0 0.0 0.00 0.00 0.00 71 1016.8
20260508034510 57 296 0.0 0.0 0.00 0.00 0.00 71 1016.8
20260508034005 57 296 0.0 0.0 0.00 0.00 0.00 69 1016.8
20260508033504 57 296 0.0 0.0 0.00 0.00 0.00 69 1016.7
20260508033014 58 296 0.0 0.0 0.00 0.00 0.00 69 1016.8
20260508032504 58 296 0.0 0.0 0.00 0.00 0.00 67 1016.8
20260508032007 58 296 0.0 0.0 0.00 0.00 0.00 67 1016.8